SCP
0 0 0 0 0 0 0 0 0 0 0 0 0 0 0 0 0 0 0 0 0 0 0 0 0 0 0 0 0 0 0 0 0 0 0 0 0 0 0 0 0 0 0
0 0 0 0 0 0 0 0 0 0 0 0 0 0 0 0 0 0 0 0 0 0 0 0 0 0 0 0 0 0 0 0 0 0 0 0 0 0 0 0 0 0 0
0 0 0 0 0 0 0 0 0 0 0 0 0 0 0 0 0 0 0 0 0 0 0 0 0 0 0 0 0 0 0 0 0 0 0 0 0 0 0 0 0 0 0
0 0 0 0 0 0 0 0 0 0 0 0 0 0 0 0 0 0 0 0 0 0 0 0 0 0 0 0 0 0 0 0 0 0 0 0 0 0 0 0 0 0 0
0 0 0 0 0 0 0 0 0 0 0 0 0 0 0 0 0 0 0 0 0 0 0 0 0 0 0 0 0 0 0 0 0 0 0 0 0 0 0 0 0 0 0
0 0 0 0 0 0 0 0 0 0 0 0 0 0 0 0 0 0 0 0 0 0 0 0 0 0 0 0 0 0 0 0 0 0 0 0 0 0 0 0 0 0 0
0 0 0 0 0 0 0 0 0 0 0 0 0 0 0 0 0 0 0 0 0 0 0 0 0 0 0 0 0 0 0 0 0 0 0 0 0 0 0 0 0 0 0
0 0 0 0 0 0 0 0 0 0 0 0 0 0 0 0 0 0 0 0 0 0 0 0 0 0 0 0 0 0 0 0 0 0 0 0 0 0 0 0 0 0 0
0 0 0 0 0 0 0 0 0 0 0 0 0 0 0 0 0 0 0 0 0 0 0 0 0 0 0 0 0 0 0 0 0 0 0 0 0 0 0 0 0 0 0
0 0 0 0 0 0 0 0 0 0 0 0 0 0 0 0 0 0 0 0 0 0 0 0 0 0 0 0 0 0 0 0 0 0 0 0 0 0 0 0 0 0 0
0 0 0 0 0 0 0 0 0 0 0 0 0 0 0 0 0 0 0 0 0 0 0 0 0 0 0 0 0 0 0 0 0 0 0 0 0 0 0 0 0 0 0
0 0 0 0 0 0 0 0 0 0 0 0 0 0 0 0 0 0 0 0 0 0 0 0 0 0 0 0 0 0 0 0 0 0 0 0 0 0 0 0 0 0 0
0 0 0 0 0 0 0 0 0 0 0 0 0 0 0 0 0 0 0 0 0 0 0 0 0 0 0 0 0 0 0 0 0 0 0 0 0 0 0 0 0 0 0
0 0 0 0 0 0 0 0 0 0 0 0 0 0 0 0 0 0 0 0 0 0 0 0 0 0 0 0 0 0 0 0 0 0 0 0 0 0 0 0 0 0 0
0 0 0 0 0 0 0 0 0 0 0 0 0 0 0 0 0 0 0 0 0 0 0 0 0 0 0 0 0 0 0 0 0 0 0 0 0 0 0 0 0 0 0
0 0 0 0 0 0 0 0 0 0 0 0 0 0 0 0 0 0 0 0 0 0 0 0 0 0 0 0 0 0 0 0 0 0 0 0 0 0 0 0 0 0 0
0 0 0 0 0 0 0 0 0 0 0 0 0 0 0 0 0 0 0 0 0 0 0 0 0 0 0 0 0 0 0 0 0 0 0 0 0 0 0 0 0 0 0
0 0 0 0 0 0 0 0 0 0 0 0 0 0 0 0 0 0 0 0 0 0 0 0 0 0 0 0 0 0 0 0 0 0 0 0 0 0 0 0 0 0 0
0 0 0 0 0 0 0 0 0 0 0 0 0 0 0 0 0 0 0 0 0 0 0 0 0 0 0 0 0 0 0 0 0 0 0 0 0 0 0 0 0 0 0
0 0 0 0 0 0 0 0 0 0 0 0 0 0 0 0 0 0 0 0 0 0 0 0 0 0 0 0 0 0 0 0 0 0 0 0 0 0 0 0 0 0 0
0 0 0 0 0 0 0 0 0 0 0 0 0 0 0 0 0 0 0 0 0 0 0 0 0 0 0 0 0 0 0 0 0 0 0 0 0 0 0 0 0 0 0
0 0 0 0 0 0 0 0 0 0 0 0 0 0 0 0 0 0 0 0 0 0 0 0 0 0 0 0 0 0 0 0 0 0 0 0 0 0 0 0 0 0 0
0 0 0 0 0 0 0 0 0 0 0 0 0 0 0 0 0 0 0 0 0 0 0 0 0 0 0 0 0 0 0 0 0 0 0 0 0 0 0 0 0 0 0
0 0 0 0 0 0 0 0 0 0 0 0 0 0 0 0 0 0 0 0 0 0 0 0 0 0 0 0 0 0 0 0 0 0 0 0 0 0 0 0 0 0 0
-0 -0 0 0 0 0 0 0 0 0 0 0 0 0 0 0 0 0 0 0 0 0 0 0 0 0 0 0 0 0 0 0 0 0 0 0 0 0 0 0 0 0 0
-0 -0 -0 -0 0 0 0 0 0 0 0 0 0 0 0 0 0 0 0 0 0 0 0 0 0 0 0 0 0 0 0 0 0 0 0 0 0 0 0 0 0 0 0
Wind_Speed_500mb
71 58 66 80 69 75 67 74 72 71 78 102 99 97 91 84 79 85 82 76 72 69 67 67 63 56 51 47 44 42 40 38 34 30 30 31 30 30 31 32 33 33 32
52 53 64 59 65 81 83 79 78 73 77 86 96 98 93 91 83 86 88 82 78 77 77 72 63 57 56 56 52 47 45 42 37 31 24 15 24 30 31 31 31 31 30
65 63 59 65 62 70 80 89 85 79 77 79 92 101 99 95 91 91 93 89 88 87 79 70 66 64 62 58 52 52 47 45 41 37 26 11 12 9 17 23 25 27 29
59 62 57 64 64 67 63 67 78 78 78 78 89 99 104 103 103 96 95 94 93 86 81 76 70 67 65 62 59 55 53 48 47 40 39 38 35 17 10 21 28 30 32
54 54 60 60 57 51 53 55 58 68 77 86 91 94 103 104 97 99 99 101 96 90 86 80 76 73 70 66 63 60 56 53 49 46 42 40 40 40 37 19 29 33 35
65 69 80 80 74 82 77 70 65 65 69 76 86 96 104 106 108 103 101 102 100 96 92 85 79 77 74 69 64 61 60 55 51 49 45 43 36 36 37 38 34 34 37
56 56 55 61 64 67 66 67 73 74 77 85 83 84 98 103 110 109 107 103 105 103 97 90 87 83 76 70 67 65 61 56 53 49 47 45 44 43 40 38 31 34 36
20 32 33 45 50 54 54 57 65 78 83 83 85 83 79 93 104 108 109 109 107 102 97 93 89 84 80 75 70 66 61 57 54 51 48 46 45 43 42 42 37 33 36
3 15 26 32 38 38 43 50 55 61 71 82 85 89 92 94 97 102 108 108 106 98 93 92 89 85 80 75 70 66 61 57 53 50 48 46 45 43 42 42 41 39 22
10 15 23 28 32 35 44 51 52 57 61 68 77 86 90 91 96 96 101 104 102 98 92 91 88 83 79 75 70 65 61 58 54 51 48 47 44 43 43 42 42 43 42
20 15 13 18 23 28 35 44 51 57 54 58 65 76 83 85 90 94 95 96 93 93 89 85 84 83 80 76 71 66 61 57 54 52 49 46 44 44 43 43 44 44 44
23 21 18 13 11 13 18 25 33 46 53 52 53 61 68 75 80 84 88 84 82 82 82 82 83 83 79 75 71 67 62 59 56 52 48 46 45 44 44 44 44 43 44
31 30 25 23 18 12 9 11 17 25 34 44 50 53 58 64 69 72 75 79 83 82 80 80 81 80 78 75 69 63 59 56 53 50 48 46 45 46 46 45 46 45 46
31 34 30 29 25 22 15 7 4 11 22 29 37 43 48 53 58 61 66 75 79 79 83 84 78 75 73 70 66 64 60 56 53 50 49 47 48 47 45 47 48 48 46
40 39 34 28 25 24 23 18 9 0 11 21 27 35 40 43 48 54 62 70 72 75 78 78 75 70 68 67 65 62 59 57 54 51 50 50 49 46 47 48 46 45 45
41 39 29 22 19 19 21 21 18 13 6 6 16 24 31 37 44 51 58 66 73 76 76 73 68 68 68 68 66 61 59 55 53 51 49 47 47 47 47 46 44 43 42
40 39 30 19 15 13 13 12 12 12 9 7 8 15 23 32 41 48 54 60 65 67 68 67 66 65 61 62 61 59 53 52 50 49 50 48 46 43 42 40 37 37 38
42 38 28 17 13 11 9 9 8 5 6 8 14 19 24 30 37 43 49 55 56 56 57 56 57 56 55 54 53 51 48 46 48 46 45 44 42 40 39 37 38 39 41
40 34 26 18 13 9 8 6 3 1 5 8 13 18 22 28 34 40 44 45 47 49 49 49 52 51 49 52 51 47 48 46 46 44 43 41 38 36 34 36 37 35 38
35 33 28 21 14 11 8 6 3 2 5 10 13 18 24 25 30 32 36 38 40 41 42 42 43 46 48 49 49 45 45 43 41 40 39 38 38 36 36 39 37 38 36
33 30 28 26 21 16 12 7 3 0 3 6 9 13 17 22 26 31 33 36 39 41 43 43 43 44 44 44 45 48 46 43 40 40 41 38 35 35 36 36 39 37 31
31 29 26 25 20 15 11 7 5 2 0 4 7 11 14 17 20 23 26 29 32 34 35 36 36 36 37 39 39 38 37 36 39 39 35 30 29 29 29 30 30 27 27
31 28 27 24 20 16 12 10 6 4 3 4 5 7 9 13 17 19 21 24 27 28 30 32 33 32 32 32 34 36 40 34 33 30 27 25 27 28 31 34 36 37 35
31 27 24 23 21 19 15 11 8 6 4 3 3 5 8 11 13 15 17 19 20 23 27 29 29 29 29 30 32 34 36 36 35 27 27 26 25 25 28 30 32 35 35
30 29 27 23 20 17 14 10 7 4 2 2 2 4 7 9 11 12 14 16 18 22 24 25 26 27 30 31 31 31 31 31 30 29 26 24 25 24 21 22 22 23 25
30 28 26 23 20 18 16 14 10 5 3 3 6 8 9 11 13 16 19 22 24 23 23 24 24 26 28 30 31 30 28 31 29 25 22 21 22 20 18 15 16 16 19
Wind_Direction_500mb
242 245 248 250 240 239 233 234 237 227 221 222 221 220 224 227 225 222 222 223 222 224 225 227 227 227 230 233 234 234 235 238 241 248 259 267 270 270 269 265 263 260 259
244 242 246 249 245 240 239 233 236 230 226 224 225 225 225 228 231 222 222 222 223 224 226 227 227 227 229 231 232 234 234 237 238 239 247 266 271 264 262 259 257 256 255
244 249 253 251 251 241 239 241 238 236 230 227 223 223 227 227 227 224 223 222 223 224 226 228 227 228 229 231 233 234 234 236 238 238 228 235 231 252 259 258 256 254 253
242 243 245 249 245 246 244 241 238 235 237 229 227 226 228 228 231 229 224 224 226 226 227 227 227 229 231 231 231 233 234 235 239 240 242 243 248 245 263 261 257 256 255
232 238 243 246 245 244 243 241 241 239 237 237 235 232 230 233 234 231 228 225 225 226 227 226 226 228 229 230 230 232 233 236 240 243 246 248 249 250 245 258 260 257 255
238 242 251 256 253 257 256 254 248 241 239 238 237 236 234 231 231 231 231 228 226 225 226 226 228 229 229 229 230 233 233 235 239 243 247 249 250 253 248 247 252 254 258
239 244 244 249 253 253 254 251 243 239 233 234 236 239 236 233 235 235 233 229 226 225 227 226 226 228 229 230 230 232 233 236 240 245 248 251 253 254 252 250 252 257 261
267 247 246 252 257 257 255 250 243 238 238 234 233 234 234 233 235 236 235 234 231 229 228 227 227 227 227 227 228 230 232 236 240 244 248 252 253 254 253 251 249 260 261
223 231 235 242 245 245 244 239 238 241 243 241 238 236 233 232 235 235 235 234 232 229 229 229 227 226 226 227 229 231 233 237 240 243 245 249 251 251 252 252 250 248 254
326 266 260 260 254 248 242 244 242 240 241 244 243 241 238 238 235 235 236 235 231 229 228 227 226 225 224 224 225 227 229 233 237 240 244 247 248 249 251 252 252 250 245
352 326 295 275 270 259 250 247 242 240 237 238 240 240 239 237 236 236 234 235 232 229 227 226 223 221 221 221 223 225 229 232 235 239 242 245 246 247 250 253 254 253 250
358 357 346 335 316 283 261 249 241 238 234 234 237 239 240 239 237 236 239 232 233 229 225 222 219 218 218 220 222 225 228 232 236 240 242 242 244 247 250 253 255 257 257
15 15 12 9 3 349 303 263 243 232 231 230 231 234 237 237 237 237 234 232 224 223 221 218 216 215 216 218 221 226 228 232 236 239 241 242 244 246 250 254 257 258 259
8 9 16 20 19 15 1 328 272 244 223 220 226 229 232 233 233 233 229 226 226 220 212 209 209 213 216 218 221 224 225 230 235 237 239 242 245 248 252 255 257 258 256
8 10 8 17 26 31 27 18 13 330 230 216 217 222 224 227 227 223 221 219 218 215 211 205 202 205 212 218 220 222 226 230 232 235 239 242 246 251 251 251 253 251 251
0 5 10 15 22 34 34 32 28 36 64 223 216 219 217 215 216 216 214 211 204 201 201 200 202 204 209 213 216 222 227 229 232 237 243 247 246 244 245 248 246 247 245
358 3 7 9 12 20 38 36 39 41 61 116 160 199 202 204 203 201 199 197 196 196 197 197 199 203 208 210 214 218 223 230 234 238 240 242 243 245 246 247 246 245 247
3 7 11 17 15 21 24 34 39 54 88 128 144 161 168 172 175 178 180 182 185 188 190 191 195 200 204 212 218 221 225 232 236 238 240 241 241 241 244 246 246 248 247
11 12 15 18 17 19 20 17 356 209 174 182 174 170 173 177 177 179 182 185 187 189 193 197 202 207 211 216 220 222 226 228 233 233 235 237 239 239 238 241 245 248 251
21 26 29 28 29 31 26 14 347 236 200 204 200 192 191 188 190 193 193 194 197 201 204 207 208 209 211 215 218 222 227 227 230 234 237 238 238 238 238 241 245 250 252
21 26 30 33 33 29 24 18 27 23 192 202 207 205 201 201 199 201 200 201 201 203 204 206 209 211 212 212 213 216 221 223 229 235 239 241 239 236 234 236 242 250 260
23 26 25 25 24 24 22 20 13 36 265 215 208 202 198 200 202 204 205 204 204 204 204 204 205 207 210 211 210 207 214 223 225 229 231 228 224 225 221 230 241 247 254
20 22 23 20 17 16 11 359 360 348 309 263 234 215 202 197 194 195 198 200 200 199 204 204 204 204 208 209 210 208 209 212 224 224 225 222 216 210 212 221 228 233 240
17 16 18 20 23 23 22 17 2 346 331 303 250 206 188 187 186 187 186 190 194 197 201 202 200 196 200 206 206 204 202 204 209 214 213 207 209 212 220 226 233 241 245
21 16 15 12 9 9 7 6 0 350 301 235 213 211 204 196 193 187 188 191 200 201 205 204 201 196 193 194 193 191 187 190 195 198 202 205 210 213 217 229 236 244 250
14 11 8 4 1 355 344 339 323 301 280 245 210 206 211 211 203 201 204 205 201 202 200 193 191 189 184 186 188 189 192 195 196 194 199 202 210 211 218 221 231 240 248
Wind_Speed_850mb
71 58 66 80 69 75 67 74 72 71 78 102 99 97 91 84 79 85 82 76 72 69 67 67 63 56 51 47 44 42 40 38 34 30 30 31 30 30 31 32 33 33 32
52 53 64 59 65 81 83 79 78 73 77 86 96 98 93 91 83 86 88 82 78 77 77 72 63 57 56 56 52 47 45 42 37 31 24 15 24 30 31 31 31 31 30
65 63 59 65 62 70 80 89 85 79 77 79 92 101 99 95 91 91 93 89 88 87 79 70 66 64 62 58 52 52 47 45 41 37 26 11 12 9 17 23 25 27 29
59 62 57 64 64 67 63 67 78 78 78 78 89 99 104 103 103 96 95 94 93 86 81 76 70 67 65 62 59 55 53 48 47 40 39 38 35 17 10 21 28 30 32
54 54 60 60 57 51 53 55 58 68 77 86 91 94 103 104 97 99 99 101 96 90 86 80 76 73 70 66 63 60 56 53 49 46 42 40 40 40 37 19 29 33 35
65 69 80 80 74 82 77 70 65 65 69 76 86 96 104 106 108 103 101 102 100 96 92 85 79 77 74 69 64 61 60 55 51 49 45 43 36 36 37 38 34 34 37
56 56 55 61 64 67 66 67 73 74 77 85 83 84 98 103 110 109 107 103 105 103 97 90 87 83 76 70 67 65 61 56 53 49 47 45 44 43 40 38 31 34 36
20 32 33 45 50 54 54 57 65 78 83 83 85 83 79 93 104 108 109 109 107 102 97 93 89 84 80 75 70 66 61 57 54 51 48 46 45 43 42 42 37 33 36
3 15 26 32 38 38 43 50 55 61 71 82 85 89 92 94 97 102 108 108 106 98 93 92 89 85 80 75 70 66 61 57 53 50 48 46 45 43 42 42 41 39 22
10 15 23 28 32 35 44 51 52 57 61 68 77 86 90 91 96 96 101 104 102 98 92 91 88 83 79 75 70 65 61 58 54 51 48 47 44 43 43 42 42 43 42
20 15 13 18 23 28 35 44 51 57 54 58 65 76 83 85 90 94 95 96 93 93 89 85 84 83 80 76 71 66 61 57 54 52 49 46 44 44 43 43 44 44 44
23 21 18 13 11 13 18 25 33 46 53 52 53 61 68 75 80 84 88 84 82 82 82 82 83 83 79 75 71 67 62 59 56 52 48 46 45 44 44 44 44 43 44
31 30 25 23 18 12 9 11 17 25 34 44 50 53 58 64 69 72 75 79 83 82 80 80 81 80 78 75 69 63 59 56 53 50 48 46 45 46 46 45 46 45 46
31 34 30 29 25 22 15 7 4 11 22 29 37 43 48 53 58 61 66 75 79 79 83 84 78 75 73 70 66 64 60 56 53 50 49 47 48 47 45 47 48 48 46
40 39 34 28 25 24 23 18 9 0 11 21 27 35 40 43 48 54 62 70 72 75 78 78 75 70 68 67 65 62 59 57 54 51 50 50 49 46 47 48 46 45 45
41 39 29 22 19 19 21 21 18 13 6 6 16 24 31 37 44 51 58 66 73 76 76 73 68 68 68 68 66 61 59 55 53 51 49 47 47 47 47 46 44 43 42
40 39 30 19 15 13 13 12 12 12 9 7 8 15 23 32 41 48 54 60 65 67 68 67 66 65 61 62 61 59 53 52 50 49 50 48 46 43 42 40 37 37 38
42 38 28 17 13 11 9 9 8 5 6 8 14 19 24 30 37 43 49 55 56 56 57 56 57 56 55 54 53 51 48 46 48 46 45 44 42 40 39 37 38 39 41
40 34 26 18 13 9 8 6 3 1 5 8 13 18 22 28 34 40 44 45 47 49 49 49 52 51 49 52 51 47 48 46 46 44 43 41 38 36 34 36 37 35 38
35 33 28 21 14 11 8 6 3 2 5 10 13 18 24 25 30 32 36 38 40 41 42 42 43 46 48 49 49 45 45 43 41 40 39 38 38 36 36 39 37 38 36
33 30 28 26 21 16 12 7 3 0 3 6 9 13 17 22 26 31 33 36 39 41 43 43 43 44 44 44 45 48 46 43 40 40 41 38 35 35 36 36 39 37 31
31 29 26 25 20 15 11 7 5 2 0 4 7 11 14 17 20 23 26 29 32 34 35 36 36 36 37 39 39 38 37 36 39 39 35 30 29 29 29 30 30 27 27
31 28 27 24 20 16 12 10 6 4 3 4 5 7 9 13 17 19 21 24 27 28 30 32 33 32 32 32 34 36 40 34 33 30 27 25 27 28 31 34 36 37 35
31 27 24 23 21 19 15 11 8 6 4 3 3 5 8 11 13 15 17 19 20 23 27 29 29 29 29 30 32 34 36 36 35 27 27 26 25 25 28 30 32 35 35
30 29 27 23 20 17 14 10 7 4 2 2 2 4 7 9 11 12 14 16 18 22 24 25 26 27 30 31 31 31 31 31 30 29 26 24 25 24 21 22 22 23 25
30 28 26 23 20 18 16 14 10 5 3 3 6 8 9 11 13 16 19 22 24 23 23 24 24 26 28 30 31 30 28 31 29 25 22 21 22 20 18 15 16 16 19
Wind_Direction_850mb
242 245 248 250 240 239 233 234 237 227 221 222 221 220 224 227 225 222 222 223 222 224 225 227 227 227 230 233 234 234 235 238 241 248 259 267 270 270 269 265 263 260 259
244 242 246 249 245 240 239 233 236 230 226 224 225 225 225 228 231 222 222 222 223 224 226 227 227 227 229 231 232 234 234 237 238 239 247 266 271 264 262 259 257 256 255
244 249 253 251 251 241 239 241 238 236 230 227 223 223 227 227 227 224 223 222 223 224 226 228 227 228 229 231 233 234 234 236 238 238 228 235 231 252 259 258 256 254 253
242 243 245 249 245 246 244 241 238 235 237 229 227 226 228 228 231 229 224 224 226 226 227 227 227 229 231 231 231 233 234 235 239 240 242 243 248 245 263 261 257 256 255
232 238 243 246 245 244 243 241 241 239 237 237 235 232 230 233 234 231 228 225 225 226 227 226 226 228 229 230 230 232 233 236 240 243 246 248 249 250 245 258 260 257 255
238 242 251 256 253 257 256 254 248 241 239 238 237 236 234 231 231 231 231 228 226 225 226 226 228 229 229 229 230 233 233 235 239 243 247 249 250 253 248 247 252 254 258
239 244 244 249 253 253 254 251 243 239 233 234 236 239 236 233 235 235 233 229 226 225 227 226 226 228 229 230 230 232 233 236 240 245 248 251 253 254 252 250 252 257 261
267 247 246 252 257 257 255 250 243 238 238 234 233 234 234 233 235 236 235 234 231 229 228 227 227 227 227 227 228 230 232 236 240 244 248 252 253 254 253 251 249 260 261
223 231 235 242 245 245 244 239 238 241 243 241 238 236 233 232 235 235 235 234 232 229 229 229 227 226 226 227 229 231 233 237 240 243 245 249 251 251 252 252 250 248 254
326 266 260 260 254 248 242 244 242 240 241 244 243 241 238 238 235 235 236 235 231 229 228 227 226 225 224 224 225 227 229 233 237 240 244 247 248 249 251 252 252 250 245
352 326 295 275 270 259 250 247 242 240 237 238 240 240 239 237 236 236 234 235 232 229 227 226 223 221 221 221 223 225 229 232 235 239 242 245 246 247 250 253 254 253 250
358 357 346 335 316 283 261 249 241 238 234 234 237 239 240 239 237 236 239 232 233 229 225 222 219 218 218 220 222 225 228 232 236 240 242 242 244 247 250 253 255 257 257
15 15 12 9 3 349 303 263 243 232 231 230 231 234 237 237 237 237 234 232 224 223 221 218 216 215 216 218 221 226 228 232 236 239 241 242 244 246 250 254 257 258 259
8 9 16 20 19 15 1 328 272 244 223 220 226 229 232 233 233 233 229 226 226 220 212 209 209 213 216 218 221 224 225 230 235 237 239 242 245 248 252 255 257 258 256
8 10 8 17 26 31 27 18 13 330 230 216 217 222 224 227 227 223 221 219 218 215 211 205 202 205 212 218 220 222 226 230 232 235 239 242 246 251 251 251 253 251 251
0 5 10 15 22 34 34 32 28 36 64 223 216 219 217 215 216 216 214 211 204 201 201 200 202 204 209 213 216 222 227 229 232 237 243 247 246 244 245 248 246 247 245
358 3 7 9 12 20 38 36 39 41 61 116 160 199 202 204 203 201 199 197 196 196 197 197 199 203 208 210 214 218 223 230 234 238 240 242 243 245 246 247 246 245 247
3 7 11 17 15 21 24 34 39 54 88 128 144 161 168 172 175 178 180 182 185 188 190 191 195 200 204 212 218 221 225 232 236 238 240 241 241 241 244 246 246 248 247
11 12 15 18 17 19 20 17 356 209 174 182 174 170 173 177 177 179 182 185 187 189 193 197 202 207 211 216 220 222 226 228 233 233 235 237 239 239 238 241 245 248 251
21 26 29 28 29 31 26 14 347 236 200 204 200 192 191 188 190 193 193 194 197 201 204 207 208 209 211 215 218 222 227 227 230 234 237 238 238 238 238 241 245 250 252
21 26 30 33 33 29 24 18 27 23 192 202 207 205 201 201 199 201 200 201 201 203 204 206 209 211 212 212 213 216 221 223 229 235 239 241 239 236 234 236 242 250 260
23 26 25 25 24 24 22 20 13 36 265 215 208 202 198 200 202 204 205 204 204 204 204 204 205 207 210 211 210 207 214 223 225 229 231 228 224 225 221 230 241 247 254
20 22 23 20 17 16 11 359 360 348 309 263 234 215 202 197 194 195 198 200 200 199 204 204 204 204 208 209 210 208 209 212 224 224 225 222 216 210 212 221 228 233 240
17 16 18 20 23 23 22 17 2 346 331 303 250 206 188 187 186 187 186 190 194 197 201 202 200 196 200 206 206 204 202 204 209 214 213 207 209 212 220 226 233 241 245
21 16 15 12 9 9 7 6 0 350 301 235 213 211 204 196 193 187 188 191 200 201 205 204 201 196 193 194 193 191 187 190 195 198 202 205 210 213 217 229 236 244 250
14 11 8 4 1 355 344 339 323 301 280 245 210 206 211 211 203 201 204 205 201 202 200 193 191 189 184 186 188 189 192 195 196 194 199 202 210 211 218 221 231 240 248